Regional Weather Roundup
Issued by NWS

Home | Current Version | Previous Version | Graphics & Text | Print | Product List | Glossary On
Versions: 1 2 3 4 5 6 7 8 9 10 11 12 13 14 15 16 17 18 19 20 21 22 23 24 25 26 27 28 29 30 31 32 33 34 35 36 37 38 39 40 41 42 43 44 45 46 47 48 49
000
ASUS43 KDMX 121407
RWRIA

WEATHER ROUNDUP FOR IOWA
NATIONAL WEATHER SERVICE DES MOINES IA
900 AM CDT SAT JUL 12 2014

NOTE: "FAIR" INDICATES FEW OR NO CLOUDS BELOW 12,000 FEET WITH NO
SIGNIFICANT WEATHER AND/OR OBSTRUCTIONS TO VISIBILITY.

* - THESE STATIONS ARE NOT NWS STATIONS...THUS NOT UNDER NWS
QUALITY CONTROL.  THEY ALSO DO NOT REPORT WEATHER SUCH
AS PRECIPITATION OR FOG.

IAZ001>003-012>014-020>022-031>034-043>046-121500-
   NORTHWEST IOWA

CITY           SKY/WX    TMP DP  RH WIND       PRES   REMARKS
CARROLL *      MOSUNNY   72  70  94 SE5       30.02R
CHEROKEE *     CLOUDY    70  70 100 CALM      29.99S
DENISON *      SUNNY     73  72  94 E6        29.99F
LE MARS *      MOSUNNY   70  70 100 CALM      30.01R
ORANGE CITY *  LGT RAIN  72  66  83 CALM      30.01R
SHELDON *        N/A     70  70 100 CALM      30.01R
SIOUX CITY     LGT RAIN  71  69  93 SE9       29.98R
SPENCER        LGT RAIN  71  68  90 N3        30.01R
STORM LAKE *   SUNNY     70  70 100 CALM      30.02S
$$

IAZ055>058-069>071-079>083-090>094-121500-
   SOUTHWEST IOWA

CITY           SKY/WX    TMP DP  RH WIND       PRES   REMARKS
ATLANTIC *     SUNNY     73  68  83 SE8G14    30.01R
AUDUBON *      SUNNY     75  72  88 SE3       30.03R
CLARINDA *     SUNNY     79  72  78 S3        30.03F HX  82
COUNCIL BLFS * SUNNY     73  72  94 E7        30.00R
CRESTON *      SUNNY     73  70  88 SE8       30.04F
HARLAN  *      SUNNY     73  70  88 SE5       30.04S
LAMONI         PTSUNNY   77  72  84 SE6       30.05F
RED OAK *      SUNNY     79  73  83 VRB3      30.00F HX  82
SHENANDOAH *   SUNNY     79  73  83 SE10      30.01S HX  82
$$

IAZ047>049-059>061-072>074-084-121500-
   CENTRAL IOWA

CITY           SKY/WX    TMP DP  RH WIND       PRES   REMARKS
AMES           CLOUDY    72  70  93 S5        30.01S
ANKENY *       CLOUDY    73  70  88 S5        30.02S
CHARITON *     SUNNY     75  72  88 SE5       30.05S
DES MOINES     CLOUDY    74  70  87 S9        30.02F
GRINNELL*      PTSUNNY   73  70  88 CALM      30.03F
KNOXVILLE *    SUNNY     75  70  83 S6        30.03R
MARSHALLTOWN   CLOUDY    74  71  91 S7        30.00F
PELLA *        CLOUDY    77  72  83 CALM      30.04S
PERRY *          N/A     72  70  94 S3        30.01F
$$

IAZ004>006-015-016-023>025-035-036-121500-
   NORTH CENTRAL IOWA

CITY           SKY/WX    TMP DP  RH WIND       PRES   REMARKS
ALGONA *       MOSUNNY   72  70  94 S6        30.02R FOG
CLARION *      SUNNY     70  70 100 CALM      30.01S
ESTHERVILLE    CLOUDY    70  69  97 W8        30.00S
FORT DODGE *   CLOUDY    70  68  94 CALM      30.02S
MASON CITY     CLOUDY    71  70  96 W9        30.03R
FOREST CITY *  LGT RAIN  70  70 100 CALM      30.01R
IOWA FALLS *   PTSUNNY   72  70  94 W3        30.03R
$$

IAZ007>011-017>019-026>030-037>042-050>054-066-121500-
   NORTHEAST IOWA

CITY           SKY/WX    TMP DP  RH WIND       PRES   REMARKS
CEDAR RAPIDS   CLOUDY    72  72 100 SW3       30.01S
CHARLES CITY * SUNNY     72  70  94 CALM      30.01R FOG
CLINTON *      CLOUDY    72  70  94 NE9       29.98F
DECORAH *        N/A    N/A N/A N/A MISG        N/A
DUBUQUE        CLOUDY    69  69 100 NE9       29.99F
MONTICELLO *   SUNNY     72  72 100 VRB5      29.99F FOG
OELWEIN *      SUNNY     73  73 100 NE6       30.00F
WATERLOO       CLOUDY    73  71  93 S6        29.98F
$$

IAZ064-065-067-068-078-121500-
   EAST CENTRAL IOWA

CITY           SKY/WX    TMP DP  RH WIND       PRES   REMARKS
DAVENPORT      CLOUDY    72  70  93 SW12      30.02R
IOWA CITY      CLOUDY    73  72  96 W6        30.03S
MT. PLEASANT * CLOUDY    79  73  83 SE3       30.03S HX  82
MUSCATINE *    SUNNY     73  70  88 SW5       30.02S
QUAD CITIES    CLOUDY    72  69  90 SW6       30.01R
$$

IAZ062-063-075>077-085>089-095>099-121500-
   SOUTHEAST IOWA

CITY           SKY/WX    TMP DP  RH WIND       PRES   REMARKS
BURLINGTON     CLOUDY    79  74  84 S6        30.03F HX  82
FAIRFIELD *    MOSUNNY   79  73  83 W6        30.03S HX  82
FORT MADISON * SUNNY     81  75  83 SW6       30.05S HX  86
KEOKUK *       SUNNY     79  73  83 SW7       30.04S HX  82
OSKALOOSA *      N/A     77  72  83 CALM      30.04R
CENTERVILLE *  SUNNY     77  73  88 CALM      30.07S
OTTUMWA        PTSUNNY   78  71  79 NW3       30.03S HX  80
WASHINGTON *   PTSUNNY   75  72  88 CALM      30.03S
$$

ABBREVIATIONS USED IN REMARKS
   TC - TEMPERATURES IN CELSIUS
  WCI - WIND CHILL INDEX
   HX - HEAT INDEX
  VSB - VISIBILITY
$$



USA.gov is the U.S. government's official web portal to all federal, state and local government web resources and services.